Weather History for KHWV - January, 2013

Change the Weather History Date:

Friday, January 4, 2013

  Actual Average (KISP) Record (KISP)
Temperature  
Mean Temperature 32 °F 31 °F  
Max Temperature 39 °F 39 °F 64 °F (1998)
Min Temperature 26 °F 24 °F 0 °F (2014)
Degree Days  
Heating Degree Days 32 34  
Month to date heating degree days 135  
Since 1 July heating degree days 2062  
Cooling Degree Days 0 0  
Month to date cooling degree days 0  
Year to date cooling degree days 0  
Moisture  
Dew Point 20 °F    
Average Humidity 59    
Maximum Humidity 69    
Minimum Humidity 46    
Precipitation  
Precipitation 0.00 in 0.12 in 1.02 in (2000)
Month to date precipitation 0.48  
Year to date precipitation 0.48  
Snow  
Snow 0.00 in 0.20 in 3.80 in (1988)
Month to date snowfall 0.9  
Since 1 July snowfall 6.8  
Snow Depth -    
Sea Level Pressure  
Sea Level Pressure 30.01 in    
Wind  
Wind Speed 8 mph (WSW)    
Max Wind Speed 15 mph    
Max Gust Speed 23 mph    
Visibility 10 miles    
Events      
T = Trace of Precipitation, MM = Missing Value Source: NWS Daily Summary

Daily Weather History Graph

Daily Weather History Graph

Search for Another Location

Airport or City:

Trip Planner

Search our weather history database for the weather conditions in past years. The results will help you decide how hot, cold, wet, or windy it might be!

Date:

Astronomy

Jan. 04, 2013 Rise Set
Actual Time 7:16 AM EST 4:37 PM EST
Civil Twilight 6:45 AM EST 5:08 PM EST
Nautical Twilight 6:10 AM EST 5:42 PM EST
Astronomical Twilight 5:37 AM EST 6:15 PM EST
Moon No Moon Rise 10:54 AM EST
Length of Visible Light 10h 22m
Length of Day
9h 21m
Waning Gibbous, 55% of the Moon is Illuminated
Jan 4
Waning Gibbous
Jan 4
Last Quarter
Jan 11
New
Jan 18
First Quarter
Jan 26
Full

Hourly Weather History & Observations

Time (EST) Temp. Windchill Dew Point Humidity Pressure Visibility Wind Dir Wind Speed Gust Speed Precip Events Conditions
12:56 AM 28.0 °F 21.7 °F 16.0 °F 61% 30.05 in 10.0 mi WSW 5.8 mph - N/A   Scattered Clouds
1:56 AM 28.0 °F 22.8 °F 17.1 °F 63% 30.05 in 10.0 mi WSW 4.6 mph - N/A   Partly Cloudy
2:56 AM 26.1 °F 19.4 °F 16.0 °F 66% 30.05 in 10.0 mi West 5.8 mph - N/A   Clear
3:56 AM 27.0 °F 19.5 °F 18.0 °F 69% 30.05 in 10.0 mi West 6.9 mph - N/A   Clear
4:56 AM 28.0 °F 21.7 °F 18.0 °F 66% 30.05 in 10.0 mi West 5.8 mph - N/A   Clear
5:56 AM 28.0 °F 21.7 °F 19.0 °F 69% 30.06 in 10.0 mi West 5.8 mph - N/A   Clear
6:56 AM 28.9 °F 21.9 °F 19.0 °F 67% 30.06 in 10.0 mi West 6.9 mph - N/A   Clear
7:56 AM 30.0 °F 25.2 °F 21.0 °F 69% 30.07 in 10.0 mi West 4.6 mph - N/A   Overcast
8:56 AM 34.0 °F 27.2 °F 21.9 °F 61% 30.08 in 10.0 mi WSW 8.1 mph - N/A   Overcast
9:56 AM 35.1 °F 26.9 °F 21.9 °F 59% 30.08 in 10.0 mi WSW 11.5 mph - 0.00 in   Overcast
10:56 AM 36.0 °F 29.0 °F 21.9 °F 57% 30.05 in 10.0 mi WSW 9.2 mph - N/A   Overcast
11:56 AM 37.0 °F 28.5 °F 21.0 °F 52% 30.01 in 10.0 mi West 13.8 mph - N/A   Mostly Cloudy
12:56 PM 39.0 °F 30.6 °F 19.9 °F 46% 29.98 in 10.0 mi WSW 15.0 mph - N/A   Overcast
2:56 PM 37.9 °F 30.0 °F 21.0 °F 51% 29.94 in 10.0 mi SW 12.7 mph - N/A   Clear
3:56 PM 37.9 °F 30.0 °F 19.0 °F 47% 29.94 in 10.0 mi West 12.7 mph 23.0 mph N/A   Clear
4:56 PM 35.1 °F 28.6 °F 19.9 °F 54% 29.94 in 10.0 mi West 8.1 mph - N/A   Clear
5:56 PM 34.0 °F 27.2 °F 19.9 °F 56% 29.96 in 10.0 mi WSW 8.1 mph - N/A   Clear
6:56 PM 35.1 °F 26.9 °F 19.9 °F 54% 29.97 in 10.0 mi WSW 11.5 mph - N/A   Clear
7:56 PM 35.1 °F 27.4 °F 19.9 °F 54% 29.97 in 10.0 mi WSW 10.4 mph - N/A   Clear
8:56 PM 35.1 °F 27.4 °F 21.0 °F 57% 29.96 in 10.0 mi West 10.4 mph - N/A   Clear
9:56 PM 34.0 °F 26.0 °F 19.9 °F 56% 29.96 in 10.0 mi West 10.4 mph - N/A   Clear
10:56 PM 34.0 °F 26.6 °F 19.9 °F 56% 29.98 in 10.0 mi West 9.2 mph - N/A   Clear
11:56 PM 34.0 °F 26.0 °F 19.9 °F 56% 29.98 in 10.0 mi West 10.4 mph - N/A   Clear